GFSFLT2_850_temp_024.txt.gz
Temp
17 17 16 16 16 16 16 15 15 14 14 14 14 14 14 14 14 14 14 14 14 14 14 14 14 14 14 14 14 14 14 13
16 16 15 15 15 16 16 15 15 15 14 14 13 13 13 13 13 13 13 13 13 13 13 13 13 13 13 13 13 14 13 12
17 16 16 15 15 15 15 14 14 14 13 14 13 13 13 12 12 12 13 13 13 13 13 12 13 13 12 12 12 12 12 12
16 16 15 16 16 15 15 15 14 14 13 13 13 13 12 13 12 12 12 12 12 12 12 11 11 11 11 11 12 12 12 13
17 16 16 15 16 16 16 15 15 14 13 14 13 13 13 12 12 12 12 12 12 11 11 11 11 11 11 11 11 11 11 11
17 16 16 16 16 16 16 15 15 15 14 13 14 13 13 13 12 12 12 12 12 12 11 11 11 11 10 10 10 11 11 11
18 17 15 15 16 15 15 15 15 14 14 13 14 14 14 13 13 12 12 12 12 12 12 11 11 11 11 11 10 10 10 11
18 17 17 16 15 15 15 14 14 14 14 13 14 14 14 13 13 13 13 12 12 12 11 11 11 11 10 10 10 10 10 10
19 16 16 16 15 15 15 15 14 14 14 13 13 13 12 13 13 12 12 11 12 11 11 11 11 11 11 11 11 11 10 10
16 18 17 16 15 15 15 14 14 14 13 13 13 12 12 12 12 11 11 11 11 11 11 11 10 10 11 11 11 11 10 10
19 18 17 15 15 14 14 14 14 13 14 13 13 12 11 11 11 11 10 10 10 10 10 10 10 10 10 10 11 11 11 11
17 17 15 15 15 14 14 14 14 13 13 13 12 12 11 10 11 11 11 11 11 10 10 10 9 9 9 9 9 10 11 10
16 15 15 14 14 14 14 14 14 13 13 12 11 11 10 10 10 9 9 9 8 8 9 9 8 8 8 8 9 9 10 10
14 14 13 13 13 13 13 12 12 12 12 11 11 10 10 9 9 8 7 7 7 7 7 7 7 7 8 8 8 8 8 9
13 12 12 13 13 12 12 12 12 12 12 12 11 10 9 8 7 7 7 6 6 6 6 6 6 6 6 7 6 7 7 8
12 12 11 11 12 11 11 10 10 10 10 9 9 9 7 7 7 7 6 6 5 5 4 5 5 5 5 6 6 3 4 5
11 12 12 11 10 9 9 8 8 8 8 7 7 7 7 7 6 5 5 5 4 3 3 3 3 3 3 2 3 4 2 2
11 11 11 11 10 9 9 8 7 7 7 6 6 5 5 5 4 4 4 3 3 3 2 2 1 0 0 0 0 -0 0 0
11 11 10 10 10 9 9 8 7 6 6 5 4 4 3 3 3 3 2 3 2 2 2 1 0 -0 -0 -1 -1 -1 -1 -1
11 11 10 10 9 9 8 7 6 6 5 4 4 2 2 2 2 2 2 1 1 0 -0 -1 -1 -1 -2 -2 -2 -2 -2 -2

GFSFLT2_850_temp_027.txt.gz
Temp
17 17 16 16 16 16 16 15 15 15 15 14 14 13 13 13 13 13 13 13 13 13 14 14 14 14 14 14 14 14 13 12
16 16 16 15 15 16 16 15 14 14 14 13 13 13 13 13 13 13 12 13 13 13 12 12 13 13 12 12 13 13 12 12
16 16 16 15 15 15 15 15 15 14 14 13 13 13 13 13 12 12 12 12 12 12 12 12 11 12 12 12 12 12 12 11
16 16 16 15 15 15 15 14 14 14 14 14 13 13 13 12 12 12 12 12 12 12 12 12 11 11 11 11 12 12 12 11
17 17 16 15 16 15 15 14 14 14 13 14 13 13 13 13 13 13 12 12 12 12 12 11 11 11 11 11 11 11 11 11
17 17 17 16 15 15 15 14 14 14 14 14 14 14 13 13 13 13 13 12 12 12 12 12 12 11 11 11 11 11 11 11
17 18 18 17 16 16 15 15 14 14 14 14 14 14 14 13 13 13 13 12 12 12 12 12 11 11 11 11 11 11 11 11
18 17 16 16 16 16 16 15 14 14 14 14 14 14 14 13 13 12 12 12 12 11 11 11 11 11 11 10 10 10 10 10
16 16 16 15 15 15 15 14 14 14 14 13 14 13 13 12 12 12 12 12 12 12 12 11 11 11 10 10 10 10 10 10
16 17 15 12 15 15 14 14 14 14 13 13 13 12 12 12 12 12 12 11 11 11 11 10 10 10 10 10 10 10 10 10
17 16 14 14 15 14 14 14 14 14 13 13 13 12 12 12 12 12 11 11 10 10 9 9 9 9 9 9 10 10 10 10
17 16 15 15 14 14 14 14 13 13 13 13 13 12 12 11 11 11 10 9 9 9 8 8 8 8 8 8 8 9 8 9
17 16 16 15 14 14 13 13 13 13 12 12 11 11 11 11 10 9 8 8 8 7 7 7 7 7 7 7 7 7 7 8
15 15 14 14 13 13 13 13 13 12 11 11 10 10 9 8 8 8 7 7 7 6 6 6 6 6 6 6 6 7 7 7
13 14 14 13 13 12 12 12 12 11 11 10 9 9 8 8 7 7 7 6 6 5 5 5 5 4 4 4 3 3 3 5
12 12 12 12 11 11 11 10 10 9 9 9 8 8 7 7 7 6 6 5 5 5 4 3 3 3 3 3 2 1 0 2
12 11 11 10 10 10 10 9 8 8 7 7 7 6 6 6 6 5 4 4 3 3 3 3 3 2 2 1 1 1 1 -0
11 11 11 10 10 9 9 8 8 7 7 7 6 5 5 4 3 3 2 2 2 2 2 2 2 1 1 -0 -1 -2 -1 -1
11 11 10 10 10 9 8 7 7 6 6 6 5 5 4 3 2 2 1 2 2 2 1 0 -0 -0 -1 -1 -2 -2 -2 -2
11 11 10 9 9 8 8 7 6 5 5 4 4 3 2 1 1 1 1 0 0 -0 -0 -1 -2 -1 -1 -1 -2 -2 -2 -2

GFSFLT2_850_temp_030.txt.gz
Temp
17 16 16 16 17 16 16 15 15 15 15 15 15 15 14 14 14 14 13 13 13 13 13 13 13 13 13 12 12 13 12 12
16 16 16 16 16 16 16 15 15 15 15 15 15 15 14 14 14 13 13 13 13 13 13 12 12 12 12 12 12 12 12 12
16 16 16 15 15 15 15 15 14 15 15 15 15 14 14 14 14 13 13 13 12 12 12 12 12 12 12 12 11 11 11 11
16 16 16 15 15 15 15 14 15 14 14 14 15 14 13 13 13 13 13 13 12 12 12 12 12 12 11 11 11 11 11 11
16 17 16 15 15 15 14 14 14 14 14 14 14 14 14 14 13 13 13 13 13 12 12 12 12 12 12 11 11 11 11 11
16 17 17 16 15 15 15 14 14 14 14 14 14 13 13 13 13 13 13 12 12 12 12 12 11 11 11 11 11 11 10 11
17 17 17 17 16 15 15 15 14 14 14 14 14 14 13 13 13 12 12 12 12 11 11 11 11 11 11 11 11 10 10 10
17 16 16 15 15 15 15 15 14 14 14 14 14 14 14 13 13 12 12 12 11 11 11 11 11 10 10 10 10 10 10 10
17 16 16 16 17 16 15 15 14 14 14 13 13 13 13 13 12 12 12 12 12 11 11 11 11 11 10 10 10 10 10 10
17 17 16 16 15 16 15 14 14 14 13 13 13 13 12 12 12 11 11 11 11 11 10 10 9 9 9 9 9 9 9 9
17 16 15 15 16 15 14 13 13 13 13 13 12 12 11 11 11 11 10 10 10 10 9 9 8 8 8 8 8 9 9 8
15 15 16 14 13 13 13 13 13 13 12 11 11 11 11 10 10 10 9 9 9 9 8 8 8 7 7 7 8 8 8 8
13 12 12 12 12 12 12 12 12 12 11 10 10 10 10 9 9 8 8 8 7 7 7 7 6 6 6 6 7 7 6 6
12 12 12 12 13 13 13 12 12 11 10 10 10 9 9 8 8 8 7 6 6 6 6 6 5 4 4 3 3 4 4 5
13 13 12 12 12 11 11 11 11 11 11 10 10 9 8 7 7 6 6 6 6 6 5 4 3 3 3 3 2 1 1 2
13 13 12 12 12 12 11 11 10 10 9 8 8 7 7 6 6 5 5 5 4 3 3 2 2 2 3 2 2 1 -0 -0
12 12 12 12 11 11 10 9 9 8 8 7 7 6 6 6 5 5 4 3 2 2 1 2 1 1 0 1 0 0 -0 -1
11 11 11 11 10 10 10 9 8 7 7 6 6 6 5 5 4 3 2 1 1 1 0 0 0 -1 -1 -1 -1 -1 -2 -2
11 11 10 10 10 9 9 8 7 6 6 5 5 4 4 3 2 1 1 0 0 -0 -0 -1 -1 -1 -2 -2 -1 -2 -2 -3
11 11 10 10 9 9 8 7 6 5 5 5 4 3 2 2 1 1 -0 -1 -1 -1 -1 -2 -2 -2 -2 -3 -3 -3 -3 -3

GFSFLT2_850_temp_033.txt.gz
Temp
17 17 16 16 17 17 16 16 16 16 16 15 15 15 15 15 14 14 14 14 13 13 13 13 13 12 12 12 12 12 12 12
16 16 16 16 16 16 16 16 16 15 15 14 14 14 14 14 14 14 14 13 13 13 13 13 12 12 12 12 11 12 11 11
16 16 15 15 15 15 15 15 15 15 15 14 14 14 14 14 14 13 13 13 13 12 12 12 12 12 12 12 12 12 12 12
16 16 16 15 15 14 14 14 14 14 14 15 15 14 14 14 13 13 13 12 12 12 12 11 11 11 11 11 11 11 11 11
16 16 15 15 15 15 15 15 15 15 15 14 14 14 14 13 13 13 12 12 12 11 11 11 11 11 11 11 10 10 11 11
16 16 15 15 15 15 15 15 15 15 15 14 14 14 13 13 13 12 12 11 11 11 11 11 11 11 11 11 10 10 10 10
16 16 16 16 16 16 16 15 15 14 14 14 13 13 13 13 13 12 12 12 12 12 11 11 11 11 11 11 10 10 10 10
16 16 16 16 16 15 15 15 15 14 14 13 13 13 13 13 12 12 12 12 11 11 11 11 11 10 10 10 10 10 9 9
16 16 15 16 15 14 14 14 14 14 14 13 13 13 12 12 12 11 11 11 11 11 10 10 10 10 10 10 9 9 9 9
16 15 14 14 13 14 13 13 13 13 13 13 12 12 11 11 11 10 10 10 10 10 9 9 9 9 9 9 9 9 8 8
14 14 14 14 13 13 13 13 13 13 13 12 12 11 11 10 10 10 9 9 9 9 9 8 8 8 8 8 8 8 8 8
15 15 15 13 13 13 13 12 12 12 12 11 11 11 10 10 10 9 9 9 8 8 7 7 7 6 6 6 6 7 6 6
15 13 13 12 12 12 12 12 12 11 11 11 10 10 9 9 9 8 8 7 7 6 6 6 6 6 6 6 5 4 4 5
13 13 13 12 12 12 11 11 11 11 10 10 10 10 9 8 7 7 7 6 6 6 6 5 5 4 3 3 3 2 3 2
13 13 13 12 12 12 11 11 11 11 10 10 9 8 8 7 6 6 6 5 5 4 3 3 2 2 2 2 1 1 1 1
12 12 12 12 12 11 11 11 10 10 9 9 8 7 6 6 5 5 4 4 4 2 1 1 1 1 1 0 0 -0 -1 -0
12 11 11 11 11 11 10 10 9 8 8 7 7 6 6 5 5 4 3 3 2 1 1 0 -1 -1 -1 -1 -1 -1 -1 -2
11 11 11 11 10 10 10 9 8 7 7 7 6 5 5 4 4 3 3 2 1 1 0 -1 -1 -1 -2 -2 -2 -2 -2 -2
11 10 10 10 10 9 9 8 8 7 6 6 5 5 4 4 3 2 2 2 1 -0 -1 -1 -1 -1 -2 -2 -2 -3 -3 -3
10 10 10 9 9 8 8 7 6 6 6 5 5 4 4 3 2 2 1 0 -0 -1 -1 -2 -2 -2 -2 -3 -3 -3 -3 -4